Location: Gandikunta
(16.3784°N, 80.8378°E)
Time: 20:05:51
(UTC+00:00)

Cosmos 1190 Rocket - Pass Details

Date: 19 May 2025
Orbit: 753 x 775 km, 74.1° (Epoch: 23 June)

Event Time Altitude Azimuth Distance (km) Brightness Sun altitude
Exits shadow 22:41:47 33° 220° (SW) 1,262 4.6 -19.0°
Maximum altitude 22:43:57 58° 284° (WNW) 893 4.1 -18.5°
Drops below altitude 10° 22:49:07 10° 3° (N) 2,315 6.9 -17.4°
Sets 22:51:33 0° 7° (N) 3,244 7.8 -16.9°
